Theta_e
344 345 345 346 344 347 347 351 357 356 356 350 352 353 355 362 362 364 363 362 360 357 354 351 348 351 352 350 353 352 351 353 352 345 345 350 350 353 353 352 354 351 352 352 351 351 351 350 351 353 352 352 351 350 350 349 347 345 341 336 339 345 349 350 349 350 350 350 351 350 349 349 349 348 348 349 350 350 352 353 352 352 351 352 353 353 353 353 354 353 352 352 353 353 351 351 350
346 346 344 346 346 351 352 354 357 350 348 348 352 355 358 364 363 363 362 363 361 355 350 347 348 352 350 347 348 347 349 349 349 348 349 350 349 353 352 353 353 350 351 351 351 351 351 351 351 352 350 351 350 350 350 347 344 340 337 334 338 343 349 351 351 352 351 351 352 350 349 350 349 348 349 349 350 352 352 351 350 350 349 350 352 352 352 352 353 353 352 352 353 352 350 349 349
346 345 345 347 348 352 355 357 350 342 342 345 352 359 362 364 364 363 360 361 357 350 347 348 351 351 349 349 349 347 349 347 345 345 349 350 350 352 353 353 351 349 351 350 350 351 351 351 351 351 349 349 349 351 350 347 342 338 336 334 340 346 350 350 350 352 351 350 351 350 349 349 348 348 348 349 350 351 350 348 348 349 350 352 352 352 351 351 352 352 352 352 353 352 350 349 349
345 345 347 349 353 354 358 359 351 346 341 341 350 361 363 363 363 361 361 357 351 348 348 350 353 354 354 352 349 348 349 349 347 346 349 351 350 352 353 353 351 351 352 349 347 349 350 350 351 351 350 349 350 351 350 347 343 340 336 336 345 350 351 349 349 352 351 350 350 350 350 349 348 348 349 349 349 350 349 347 348 349 351 351 351 351 350 349 349 351 352 352 352 353 351 350 350
347 348 350 352 357 358 360 361 354 350 344 345 352 362 363 362 363 361 359 354 350 348 350 352 353 353 353 352 349 350 348 347 349 348 350 351 351 352 353 353 353 353 353 350 347 349 351 351 351 350 350 349 350 351 349 348 344 340 337 342 349 350 350 350 349 352 350 349 351 349 349 349 348 349 349 350 349 348 348 348 349 350 351 350 350 350 348 348 349 348 348 348 349 351 351 350 349
350 350 351 353 356 358 358 354 348 347 353 360 358 361 363 361 363 360 357 353 352 350 352 354 351 352 351 350 349 348 348 347 348 349 351 351 352 352 352 353 353 353 353 351 351 351 352 352 351 350 350 350 351 350 349 349 343 340 343 348 350 349 349 350 350 351 351 350 350 350 350 349 349 349 351 351 349 347 347 347 349 351 351 350 350 349 347 348 349 349 348 347 347 349 350 350 350
351 352 353 355 356 358 360 349 344 349 357 365 361 362 363 360 361 358 357 355 355 353 354 354 347 351 352 350 349 350 350 348 348 349 350 351 352 353 352 352 352 355 353 352 353 353 353 352 351 351 351 351 350 348 347 345 342 343 348 350 349 349 350 351 351 351 352 350 350 352 351 351 350 350 352 351 348 346 347 348 351 351 350 350 351 349 347 346 348 349 348 348 349 349 348 350 350
352 354 354 359 361 360 360 350 349 356 359 364 363 362 361 361 360 358 359 356 358 355 352 352 347 352 352 350 352 351 350 349 349 349 351 351 352 352 351 352 353 354 353 352 355 353 353 353 352 352 352 349 349 345 339 338 343 348 351 350 348 349 350 351 351 351 352 350 350 351 351 352 352 351 351 351 349 348 349 351 352 351 350 352 352 351 349 347 347 347 347 349 349 348 346 347 350
352 356 356 359 362 357 353 350 355 361 362 363 363 362 362 360 359 360 359 356 356 352 351 351 349 354 353 353 353 350 350 350 350 349 350 350 351 351 350 351 353 353 353 352 354 353 352 352 353 353 352 350 349 344 338 342 349 352 351 350 349 350 351 351 351 351 351 351 352 351 350 351 352 352 351 350 351 351 351 351 351 351 350 352 352 351 350 348 347 347 347 347 348 349 348 348 350
355 355 358 360 359 349 345 351 357 362 364 362 362 364 362 360 360 360 360 357 353 351 352 350 351 354 353 354 353 349 350 350 350 350 350 350 351 350 350 351 352 353 352 353 354 354 352 351 351 352 352 351 350 348 347 350 353 352 351 351 351 351 352 352 351 351 352 352 351 350 350 350 352 353 352 351 353 353 351 351 350 350 350 350 351 351 350 348 347 347 347 347 348 349 349 349 350
359 354 357 359 352 344 342 351 358 364 366 362 363 363 361 361 360 359 359 356 351 351 352 350 353 352 352 354 352 350 350 350 350 351 351 351 351 350 350 350 351 351 352 354 355 356 354 351 351 351 352 351 351 352 353 353 354 353 352 352 352 351 351 351 351 350 351 350 350 351 351 351 351 352 353 353 353 352 352 350 350 351 350 350 350 350 349 347 346 347 347 348 349 349 349 349 349
359 356 361 358 351 349 348 353 359 365 366 362 363 362 360 361 361 361 360 356 351 353 350 352 353 350 352 353 351 350 350 350 350 351 352 350 350 350 350 350 351 350 352 354 355 356 356 354 351 351 350 351 352 353 353 354 354 354 353 353 351 349 349 351 351 351 351 350 350 351 352 351 352 352 352 352 351 352 352 351 351 352 350 350 350 350 349 347 347 348 349 349 349 349 349 349 349
358 360 363 357 354 357 355 355 361 365 364 364 364 361 360 361 362 360 360 358 353 352 351 352 351 349 352 351 350 347 349 351 350 351 351 350 351 350 350 351 351 350 351 353 356 356 356 356 355 353 351 351 353 354 354 354 353 353 354 354 352 351 350 351 351 352 351 348 348 350 351 351 351 351 351 351 350 350 352 352 352 352 351 350 349 349 350 349 349 350 350 350 350 349 347 348 348
357 359 360 358 359 362 361 358 360 361 360 364 364 361 361 361 361 358 358 358 355 353 351 351 349 351 352 351 349 344 346 350 350 351 351 351 351 351 351 350 350 351 351 354 356 355 355 356 356 354 353 353 353 354 354 352 352 354 354 354 354 353 353 352 351 352 351 349 349 350 350 350 351 351 352 351 350 351 352 352 352 351 350 349 349 349 348 349 349 350 351 349 350 349 347 346 346
356 356 358 359 356 360 363 360 359 359 359 363 363 362 363 360 358 357 358 359 358 352 349 351 349 352 352 350 349 344 347 350 351 351 351 352 351 351 350 350 351 351 351 354 356 355 355 356 356 356 355 354 353 353 352 351 353 353 352 352 353 353 353 353 352 352 352 351 352 352 352 351 352 352 352 351 351 351 352 351 351 350 350 350 349 347 346 347 348 349 349 349 350 350 348 346 345
353 354 360 358 349 353 360 361 358 358 360 363 362 362 363 361 359 359 359 358 357 350 348 352 350 352 350 347 348 345 347 349 350 350 350 351 350 351 351 351 351 351 352 354 355 356 356 356 356 356 356 355 354 353 352 352 352 351 351 351 351 352 353 352 352 352 352 352 352 352 353 352 351 351 352 352 352 351 350 350 350 350 348 348 347 346 346 346 347 348 348 349 350 351 349 348 346
352 357 360 351 346 351 356 359 357 358 362 362 361 361 363 362 360 359 358 356 355 352 350 349 350 351 349 346 347 347 348 347 348 350 351 351 350 351 351 351 351 351 352 353 355 356 356 356 356 357 356 356 355 355 354 354 353 351 351 351 351 352 353 352 352 352 352 351 351 352 354 354 353 352 352 351 353 352 349 347 348 349 348 346 346 346 346 345 345 346 346 348 349 350 349 349 346
354 361 355 346 349 355 357 361 360 361 365 363 362 361 363 364 362 357 356 357 356 355 351 349 350 351 350 349 348 348 348 347 347 349 350 350 350 350 350 350 350 350 351 353 354 354 355 354 356 357 356 357 356 356 355 353 353 354 353 354 354 352 352 353 354 354 352 351 352 353 356 356 355 354 353 353 354 352 350 348 346 347 346 345 346 347 346 345 344 344 345 346 348 349 350 351 349
356 358 354 352 356 356 356 360 358 360 364 364 363 361 362 363 360 357 359 359 358 356 353 350 350 350 350 349 349 348 348 348 347 348 350 349 348 349 350 350 350 350 350 351 352 353 353 353 355 358 358 358 357 357 356 353 352 354 356 356 356 353 354 355 355 354 352 353 353 354 355 354 354 353 352 352 352 351 351 350 346 345 346 346 345 346 345 344 344 344 345 345 347 349 350 351 351
355 354 356 356 354 352 354 359 359 358 361 365 363 361 363 361 356 358 360 359 358 355 352 352 352 350 348 348 349 348 347 348 348 347 348 348 348 348 349 350 349 350 349 350 350 351 353 352 354 357 357 357 357 356 356 353 351 353 357 357 357 357 356 356 355 352 350 353 354 354 354 354 353 351 350 351 352 352 352 352 349 347 348 349 347 347 346 345 346 345 345 346 348 349 350 350 350
354 354 355 352 351 349 349 355 357 356 360 364 362 362 362 359 356 360 359 358 358 354 350 351 350 350 348 346 348 349 348 349 348 347 348 348 346 347 347 349 349 349 349 349 350 352 353 353 354 356 357 357 357 357 356 354 353 355 357 356 357 358 357 356 356 353 352 354 355 355 354 354 355 353 354 353 354 354 354 353 352 350 350 351 351 349 348 348 347 346 345 347 348 348 349 349 348
351 352 350 348 347 347 345 349 355 355 359 363 362 363 362 357 358 361 360 361 360 352 349 349 347 349 348 345 347 349 349 349 349 348 348 347 346 347 347 347 347 349 349 349 351 352 352 353 355 356 357 357 357 356 357 356 356 357 357 357 357 358 358 357 356 355 354 355 355 355 355 356 355 355 356 355 354 354 355 354 353 353 352 352 352 351 349 349 349 347 349 349 348 349 350 349 350
351 350 346 345 343 344 343 344 349 353 361 363 361 363 361 358 359 360 359 362 359 352 350 348 347 350 350 348 348 347 347 349 350 350 348 347 346 347 347 347 347 348 348 349 351 352 351 353 355 356 356 357 357 356 356 356 356 356 356 356 357 357 357 355 356 355 355 355 354 354 356 356 355 355 355 355 355 355 355 353 353 354 353 353 353 353 351 351 350 349 350 351 350 350 350 351 351
350 349 345 344 341 341 339 340 345 352 360 362 359 362 361 361 361 359 359 359 355 351 349 347 349 351 351 348 347 347 348 350 349 349 347 346 346 346 346 347 347 349 349 349 352 351 351 352 355 356 356 356 355 355 356 356 355 355 355 355 356 356 355 354 354 354 354 354 354 354 355 356 355 355 355 355 355 355 354 353 353 353 353 353 353 354 352 351 351 351 351 352 352 351 350 351 351
348 348 344 342 339 337 336 336 341 348 357 358 360 362 362 361 361 360 360 356 352 351 349 347 348 348 349 347 346 347 348 350 349 348 346 345 345 345 346 346 347 349 349 350 351 351 351 352 354 354 355 355 354 355 355 355 354 354 354 354 355 355 354 353 353 354 354 353 354 354 356 355 355 355 355 354 354 354 354 353 353 353 353 353 354 354 353 353 352 352 352 352 352 352 351 352 351
345 345 342 338 336 337 336 335 340 349 355 359 361 362 361 359 360 361 358 355 351 351 349 348 348 346 348 347 346 347 347 349 350 348 347 346 346 346 346 346 346 347 347 350 351 351 351 352 353 353 354 353 353 354 355 355 354 353 353 354 355 355 354 353 353 353 354 354 354 354 355 355 355 354 354 354 355 354 354 354 353 353 353 353 353 354 354 354 354 354 354 353 353 352 352 352 352
339 339 337 336 337 340 340 340 344 350 355 359 360 361 361 358 359 361 356 353 351 351 351 348 348 348 347 346 346 350 349 350 350 348 347 346 347 347 345 346 345 346 348 349 350 351 352 352 352 352 353 354 353 354 354 354 353 353 353 353 354 354 354 353 353 353 353 354 354 352 353 355 355 354 354 354 354 355 354 353 353 352 352 353 353 354 355 355 355 355 354 354 354 353 353 353 353
335 335 336 336 340 343 343 345 348 353 358 357 358 362 361 358 358 361 355 352 351 352 352 348 349 348 347 347 346 350 351 349 350 348 348 347 347 347 345 346 345 345 348 348 350 350 351 351 352 352 353 354 353 353 353 353 353 353 353 352 353 354 353 353 353 353 354 354 354 354 354 355 355 355 355 355 354 354 354 352 353 353 353 353 354 354 356 356 356 356 354 354 354 354 353 354 353
335 335 337 337 341 344 346 350 349 354 359 355 357 360 360 361 359 359 355 352 353 352 352 350 349 348 348 347 347 348 349 349 350 348 347 347 346 346 345 345 343 345 347 348 350 351 351 351 351 352 353 353 353 352 352 352 352 352 352 351 352 353 353 353 354 354 354 355 355 356 353 352 355 357 355 356 356 353 353 353 353 354 353 353 355 355 356 357 357 356 355 355 354 354 353 353 353
337 336 337 335 337 344 348 352 352 356 357 356 357 352 353 363 358 356 355 352 353 353 353 351 349 349 348 348 348 347 349 350 350 348 347 346 345 344 344 344 342 345 348 349 350 351 351 351 351 352 352 353 353 352 352 351 351 352 351 351 352 353 353 353 354 355 356 356 355 355 354 353 355 357 356 357 356 353 353 354 354 354 354 355 356 356 356 356 356 356 356 355 354 354 354 353 352
339 336 336 334 331 338 351 352 354 359 356 355 358 349 351 363 358 354 355 352 354 354 353 352 350 350 349 349 349 347 347 350 349 348 348 347 346 345 343 343 342 345 348 349 350 351 351 352 351 351 352 353 353 352 352 352 351 351 351 352 352 353 353 353 354 354 355 356 356 355 355 355 354 353 355 357 357 354 353 354 354 355 355 356 357 357 356 356 355 355 354 356 355 353 354 353 352
339 331 328 332 327 335 353 351 353 360 357 355 360 354 355 361 358 354 355 352 353 355 355 354 351 351 350 350 350 347 347 349 349 348 349 348 347 345 343 344 344 346 349 349 350 352 352 353 352 351 351 352 352 352 352 352 352 351 352 353 352 353 353 353 355 355 355 356 356 356 354 354 353 350 352 355 356 355 353 354 355 355 355 356 356 356 356 355 355 355 354 355 356 354 354 353 353
339 332 323 326 324 332 346 349 351 356 357 356 360 358 355 357 358 354 355 353 354 356 356 355 353 352 352 351 350 348 347 347 348 347 349 350 348 346 345 345 345 346 349 349 351 352 352 352 352 351 350 352 352 352 353 353 353 352 352 353 352 353 353 353 354 354 356 355 357 357 353 353 353 349 349 352 356 356 354 355 355 356 356 356 357 357 356 354 355 355 354 355 356 355 353 352 352
332 333 325 325 326 329 337 344 349 353 357 358 361 360 355 356 358 356 355 353 355 357 356 356 354 353 353 351 350 349 348 347 347 349 350 350 348 347 346 347 347 347 349 349 350 352 352 352 352 351 351 352 352 352 353 353 353 353 353 353 352 353 353 354 353 354 356 355 357 356 353 354 354 351 350 352 355 356 354 355 355 357 357 357 357 357 356 354 354 355 355 354 355 356 353 352 353
326 328 324 322 326 330 336 345 349 352 356 359 359 358 357 357 357 357 356 353 355 356 357 355 354 354 354 353 351 349 349 348 349 351 351 349 349 349 347 348 348 347 348 348 351 352 352 352 352 352 352 351 351 353 354 353 352 352 353 353 353 353 353 354 354 354 355 354 356 356 353 355 354 353 353 353 355 356 355 356 356 357 357 357 357 356 356 356 355 355 355 354 354 355 354 353 353
332 331 327 323 323 328 338 347 350 353 354 357 359 356 356 358 356 357 355 354 356 356 357 357 357 356 355 354 352 351 350 350 351 351 350 349 350 349 349 349 349 348 348 349 352 353 353 353 353 354 353 353 352 353 353 353 353 352 353 353 352 353 354 354 354 355 355 355 356 357 355 355 354 353 353 353 355 357 356 357 357 357 357 357 358 356 356 357 357 357 356 355 355 354 353 353 352
335 334 329 326 323 325 333 340 346 353 353 353 357 356 355 356 356 357 354 355 356 356 359 358 358 357 357 356 354 353 352 350 351 351 351 350 350 351 349 349 348 349 350 351 353 353 353 353 353 355 354 353 354 353 352 352 352 352 352 352 351 353 354 355 355 354 354 355 356 355 355 356 354 352 353 354 355 357 357 358 358 358 356 357 358 358 358 359 358 357 356 356 356 355 353 351 352
335 332 328 325 324 325 328 331 335 347 352 349 350 350 351 353 354 354 354 355 356 355 357 358 357 357 357 357 356 355 352 351 350 351 353 351 352 351 350 351 351 351 352 352 354 353 353 353 354 355 354 354 354 353 353 352 352 353 353 351 350 352 354 354 355 354 354 355 356 355 356 355 353 353 353 354 355 356 358 358 358 359 357 357 358 358 358 360 359 357 357 356 355 355 353 350 351
333 333 328 324 325 326 327 330 331 340 347 345 343 342 342 346 348 352 354 354 354 354 355 355 355 356 357 357 357 356 354 352 351 351 354 352 352 352 351 352 352 351 353 353 353 353 353 353 354 356 355 355 355 354 354 353 353 353 353 352 351 352 354 354 354 355 354 355 357 356 357 354 353 355 354 353 355 356 358 358 357 358 358 358 359 359 359 360 359 357 359 358 355 353 350 349 350
333 331 325 322 326 324 321 326 333 337 339 340 341 335 336 341 343 347 350 350 352 352 353 354 355 357 357 355 355 355 355 354 352 351 351 353 352 352 352 352 353 351 352 353 353 353 354 354 356 357 356 356 356 355 355 353 354 355 354 354 354 355 354 354 355 357 355 356 357 357 356 353 352 356 355 354 355 355 357 359 357 358 358 359 360 360 360 360 359 358 358 358 356 351 347 347 349
333 333 327 325 328 325 323 326 331 329 329 337 336 325 326 336 338 342 347 348 350 351 353 355 356 358 356 355 355 354 354 355 353 351 351 353 353 352 353 353 353 352 352 353 353 352 353 354 357 357 357 356 356 357 356 355 356 356 355 355 356 355 355 355 355 356 356 356 355 356 357 355 354 356 356 355 355 356 357 359 360 359 359 359 359 360 359 359 359 359 358 357 355 353 349 346 348
328 333 333 330 331 329 329 328 326 320 320 330 330 319 320 331 337 342 347 347 349 352 353 354 356 357 357 355 354 353 353 353 353 352 352 352 353 352 353 353 353 352 353 354 353 352 352 354 358 358 358 358 356 357 357 357 357 355 354 355 355 355 356 355 355 354 355 354 353 354 356 356 355 356 356 356 356 356 357 359 361 361 359 359 359 359 359 358 358 358 358 356 354 354 352 348 346
322 330 334 334 333 331 329 328 322 315 317 326 329 322 318 327 339 347 350 351 354 353 353 353 355 357 356 356 354 353 352 353 353 353 352 353 353 353 354 354 353 352 353 354 353 353 353 355 358 359 358 359 357 358 358 357 356 355 354 354 354 355 355 355 356 355 354 353 354 354 355 356 355 355 356 356 357 357 358 358 360 360 359 359 360 360 359 358 358 358 357 357 355 355 355 352 347
321 329 332 332 333 331 330 327 321 319 320 323 326 325 318 322 338 349 350 352 357 357 356 355 354 355 356 355 354 353 353 352 353 352 352 352 354 354 354 355 353 352 353 354 354 354 356 357 359 359 358 359 358 359 358 355 356 355 355 354 355 355 354 354 357 356 355 355 355 356 356 357 357 356 356 357 357 357 358 359 359 359 360 360 359 360 359 357 358 358 357 358 356 355 354 353 351
325 329 329 329 330 331 330 327 322 322 321 316 320 324 318 321 337 348 349 350 352 354 354 354 355 355 355 355 354 353 352 352 352 352 353 354 354 354 354 354 354 351 352 354 354 355 358 360 360 360 359 359 359 360 358 354 354 356 355 355 356 356 354 354 356 355 356 357 356 357 357 358 358 357 357 358 357 357 358 358 359 359 359 359 358 358 358 357 358 359 359 358 356 355 355 354 353
328 327 327 328 329 329 330 328 322 320 319 314 317 321 318 321 332 339 345 347 348 353 352 350 352 354 356 355 354 353 352 352 350 350 353 354 355 354 354 354 353 352 352 353 354 355 358 361 362 361 361 359 359 360 359 356 355 356 356 355 356 358 355 355 355 355 357 357 357 357 359 359 359 358 358 359 358 358 358 358 359 359 358 358 358 359 359 358 358 359 359 358 357 357 356 354 354
327 326 326 325 326 329 327 326 321 318 317 316 316 320 319 321 330 337 343 346 347 350 351 349 349 349 354 356 354 353 352 352 351 349 352 354 354 353 353 355 354 353 353 353 355 355 357 361 362 363 361 360 360 360 359 358 356 356 356 355 357 358 358 356 355 356 357 358 358 358 358 358 359 358 357 358 358 359 359 359 359 358 358 359 359 359 359 358 358 358 359 359 358 358 358 356 355
325 325 324 319 320 322 321 321 320 317 317 317 318 320 317 320 330 339 345 347 347 347 349 350 349 349 350 353 353 353 352 352 351 350 352 353 354 354 353 354 354 354 353 353 355 355 357 360 362 363 362 361 360 360 359 359 357 356 355 356 357 358 358 358 357 357 357 358 357 357 357 357 357 358 357 357 357 358 359 359 359 359 359 359 360 360 359 359 359 359 360 360 359 358 357 357 356
325 324 319 315 315 317 317 317 317 317 316 317 319 318 317 323 334 341 345 345 344 346 346 348 348 349 349 350 352 353 352 352 351 351 352 352 354 355 353 354 355 354 354 354 355 355 356 359 362 363 363 362 360 361 360 359 358 357 356 355 356 358 359 358 357 356 357 357 356 356 357 357 357 357 357 356 356 357 358 359 359 360 360 360 361 362 362 362 361 361 361 360 361 360 358 357 357
323 319 315 313 314 315 316 316 316 316 315 315 319 318 318 327 337 342 344 343 341 343 344 346 348 348 349 348 349 351 352 353 353 352 351 352 354 355 354 354 355 355 355 354 355 355 356 358 361 363 363 362 361 360 360 359 358 358 357 356 356 358 358 358 357 355 355 356 356 356 356 353 353 355 354 355 355 356 356 357 358 359 360 361 361 362 363 363 362 361 362 362 360 361 361 361 359
323 324 320 315 314 314 314 314 314 315 313 314 317 317 318 325 334 341 342 341 340 341 342 345 347 347 348 347 348 349 351 352 353 352 352 352 355 355 354 354 354 354 355 355 355 355 356 358 360 362 363 363 362 361 361 360 359 358 358 357 356 357 357 357 356 355 354 356 355 355 355 353 350 350 352 353 355 355 355 356 357 357 359 360 360 361 362 362 362 362 363 363 361 361 362 362 360
321 324 320 315 316 317 313 312 313 313 313 314 315 319 325 332 337 341 342 341 340 340 341 343 345 346 346 347 347 348 349 350 351 352 353 354 355 355 355 354 353 354 354 355 355 355 356 358 360 361 362 363 362 361 361 360 360 359 358 358 357 356 357 357 357 356 355 355 355 355 355 354 351 350 352 354 355 355 355 356 356 355 357 358 357 359 361 361 362 363 364 364 362 361 362 362 361
319 319 316 318 322 320 314 313 314 312 312 314 315 322 329 333 336 340 341 341 341 340 341 342 343 345 345 346 346 346 348 348 349 350 352 354 355 355 355 355 354 354 355 355 355 356 356 358 360 361 361 362 362 361 360 360 360 359 359 359 358 357 357 356 356 357 355 354 356 355 355 354 354 353 353 352 353 355 355 355 355 354 356 357 356 358 359 361 362 363 363 365 362 361 363 363 362
318 315 317 321 322 321 318 315 314 312 312 314 314 319 323 323 329 339 340 341 341 340 341 341 342 343 343 344 345 346 346 347 347 349 351 353 356 355 355 354 354 354 354 355 355 355 356 357 359 360 361 361 361 361 360 360 360 360 360 360 359 357 356 355 353 355 355 353 354 355 354 352 353 354 352 350 353 356 356 354 354 355 356 356 356 357 358 359 361 361 361 363 362 362 364 363 363
318 316 319 321 316 315 316 315 314 312 312 314 315 318 321 320 326 337 340 341 341 341 340 340 340 341 342 342 344 345 345 346 347 348 349 352 354 355 355 354 354 354 354 355 355 355 356 358 358 358 360 361 360 360 360 360 360 359 359 359 359 357 355 355 353 353 355 354 353 354 353 352 353 353 354 354 354 355 355 354 354 354 355 356 356 356 356 358 359 359 359 359 360 361 362 362 362
319 318 321 321 317 316 315 315 315 311 310 316 319 319 322 325 331 338 341 341 340 340 340 340 340 339 340 341 342 343 345 346 346 346 347 350 352 353 354 355 355 354 353 354 354 355 355 357 357 357 358 359 360 359 359 360 360 359 359 359 360 358 357 355 354 353 355 354 353 353 351 351 352 352 353 355 354 352 354 354 352 351 351 352 354 353 355 356 357 358 357 357 357 360 360 359 359
317 316 316 318 318 318 318 316 316 313 311 315 318 319 321 327 334 340 340 339 338 339 339 338 338 337 338 339 340 341 343 345 346 346 347 351 354 353 352 354 354 353 353 353 353 354 354 355 355 356 356 358 358 358 359 360 360 359 359 359 359 359 357 356 355 354 355 355 353 352 351 350 351 352 353 353 354 352 353 353 351 350 350 350 352 353 353 354 356 357 357 356 356 358 360 359 357
316 316 315 315 316 316 316 315 315 314 314 314 315 319 322 328 333 337 338 338 336 337 337 336 337 337 337 338 338 338 339 341 344 345 346 350 356 355 354 354 355 353 353 353 352 353 353 353 353 354 355 355 357 357 358 359 359 359 359 359 359 359 358 357 355 355 355 355 353 352 352 351 351 352 352 352 352 352 352 352 351 351 352 352 355 356 353 352 355 357 357 355 355 358 359 358 358
Wind_Speed
11 9 9 9 9 7 6 5 3 3 3 1 3 2 3 3 3 5 8 7 7 6 4 8 11 6 3 5 7 9 11 9 6 4 7 13 24 21 18 20 18 18 19 18 18 17 17 20 19 17 17 18 19 19 18 17 17 16 16 16 14 13 12 12 13 14 13 12 11 10 10 11 11 10 10 9 10 11 11 12 12 12 12 12 11 10 10 11 11 12 12 13 13 11 12 13 14
10 9 10 9 8 5 3 3 3 2 3 2 3 3 5 4 4 6 8 7 7 8 8 10 10 6 4 8 7 8 11 12 11 10 11 23 27 21 21 20 17 19 21 20 19 17 16 19 19 18 19 20 19 18 17 16 16 15 15 14 13 13 12 12 13 13 12 12 11 10 11 12 12 12 12 12 12 13 12 12 11 10 11 12 11 10 10 11 11 12 11 11 12 12 13 13 14
10 10 10 9 6 4 2 3 3 1 2 3 5 4 5 5 5 7 8 8 9 11 12 11 9 5 4 8 7 6 8 9 14 14 14 22 22 21 25 20 18 19 18 18 20 21 19 19 20 20 20 20 19 18 17 16 15 15 14 14 14 13 11 12 13 13 12 11 11 11 12 12 13 14 15 15 14 14 12 12 12 11 10 12 11 11 12 12 11 11 11 10 11 13 13 13 14
11 10 9 8 4 3 2 3 2 2 1 4 5 5 6 6 7 8 8 10 12 12 12 10 8 4 3 9 7 7 9 9 14 15 13 17 20 24 26 22 21 19 16 14 18 22 20 21 21 20 20 19 19 17 16 15 15 15 14 14 13 12 12 14 15 13 11 11 12 12 12 12 13 15 16 16 15 14 13 13 13 12 12 13 12 11 12 13 12 12 13 13 12 12 12 13 14
10 8 7 6 3 1 2 2 2 3 2 5 4 5 7 8 9 10 10 12 12 12 11 8 7 5 6 9 4 5 9 9 14 16 15 18 23 25 25 23 21 20 18 16 17 18 18 20 19 19 19 18 17 16 15 14 15 15 15 14 12 12 13 15 15 13 11 12 13 14 13 12 13 16 17 16 15 14 14 15 15 13 13 13 11 10 12 14 14 14 16 16 14 13 11 11 13
9 7 6 5 3 1 2 2 1 1 5 6 3 6 8 9 10 13 12 12 11 11 10 6 8 9 7 9 8 8 7 9 13 14 17 22 24 24 23 22 21 20 20 21 19 18 19 19 18 19 18 17 16 15 14 14 15 15 15 13 12 12 14 14 14 14 11 12 13 15 14 13 14 16 16 15 15 14 13 16 16 14 13 12 11 11 12 14 15 14 16 18 17 15 13 11 12
7 6 5 4 2 1 3 2 0 1 5 5 3 7 9 10 11 14 14 13 10 10 7 6 10 10 8 7 8 9 6 10 12 14 19 23 24 23 22 20 20 20 20 22 21 19 20 19 18 18 17 16 14 14 13 14 15 15 14 13 13 13 14 14 14 13 12 12 12 14 15 14 14 15 15 14 15 14 14 15 15 14 15 13 13 13 13 14 15 15 16 17 18 17 16 13 12
5 3 2 3 3 3 3 2 1 3 4 4 4 7 9 10 12 13 14 12 10 10 8 8 10 8 7 5 7 8 8 12 14 18 22 24 24 22 20 19 20 19 19 22 22 20 20 18 18 17 16 15 14 13 14 15 15 14 13 13 13 14 14 14 13 13 13 13 13 13 15 15 15 15 14 15 15 14 13 14 15 15 16 15 14 15 15 15 16 17 18 17 17 15 18 17 12
5 3 2 2 3 3 2 1 4 4 4 5 5 7 9 10 12 13 13 11 11 11 11 10 6 6 9 8 9 8 9 13 17 21 22 23 22 20 19 18 18 18 17 20 21 20 19 18 17 16 15 14 14 13 14 15 15 14 13 13 13 14 14 13 13 12 13 14 13 13 14 15 16 16 15 16 15 13 13 15 16 16 16 16 16 16 16 15 16 17 17 17 17 15 16 17 14
5 4 2 3 3 3 3 3 4 4 5 6 6 8 9 10 11 12 12 12 12 12 11 8 5 8 11 11 9 7 11 16 20 21 21 22 20 18 18 17 17 17 17 17 18 18 19 18 16 15 14 13 13 13 14 14 14 14 14 14 14 13 13 13 12 12 12 14 14 14 14 15 16 15 16 16 15 13 14 16 17 16 16 16 16 17 16 16 16 17 18 17 17 16 15 15 14
3 3 2 3 3 2 2 5 5 4 6 6 7 8 8 9 11 11 11 12 13 12 11 7 8 12 11 10 7 8 15 19 20 21 21 21 19 18 18 17 16 16 16 17 16 16 17 17 15 14 13 12 12 12 13 13 14 15 15 15 14 13 13 13 13 12 11 12 14 15 14 14 15 15 15 16 15 15 16 16 16 16 16 16 16 16 16 16 16 17 18 17 16 16 15 15 14
2 2 3 3 0 2 3 6 7 6 7 7 7 7 6 9 10 11 11 12 13 12 11 7 8 11 10 9 6 11 18 19 20 21 20 19 18 17 16 16 15 15 16 16 15 16 16 15 14 13 12 11 11 11 11 14 14 14 16 15 14 13 13 14 13 13 11 12 14 16 15 15 14 14 15 15 16 16 16 16 16 15 15 16 15 15 16 16 16 16 17 16 15 15 15 15 14
2 2 2 2 2 3 4 5 6 6 5 5 7 8 7 8 10 11 11 11 12 12 11 8 8 8 9 10 8 12 17 19 21 21 20 19 18 16 16 16 15 15 15 15 15 15 14 14 13 12 12 11 11 11 11 13 13 13 15 14 15 15 14 14 14 14 12 12 14 15 15 15 14 15 15 14 15 15 15 15 15 14 14 15 15 15 15 16 16 16 16 15 15 15 15 15 15
2 3 4 1 2 2 3 3 5 6 4 5 7 8 8 7 8 10 10 12 11 9 10 9 8 8 10 10 8 10 16 21 21 20 20 18 18 17 16 16 15 15 14 14 14 14 13 12 12 11 11 11 11 11 11 11 12 12 13 13 14 15 15 14 14 15 14 14 14 14 14 15 15 14 15 14 14 14 14 14 14 14 14 14 14 14 15 15 16 16 16 15 15 15 15 16 16
2 3 4 1 2 2 2 2 3 5 5 6 8 8 8 6 7 9 9 10 9 7 10 8 6 5 8 11 9 12 19 23 21 20 20 18 18 17 17 16 15 14 13 13 13 13 12 11 12 10 10 9 10 12 10 9 11 11 12 12 13 13 13 13 13 13 14 15 15 15 14 15 14 14 15 14 14 14 14 14 14 14 14 13 13 14 14 15 16 16 16 16 15 14 16 17 16
3 4 3 2 2 4 4 4 3 5 6 8 9 8 9 7 6 7 6 6 8 8 8 7 4 1 6 10 13 20 25 25 22 20 20 19 18 17 17 16 15 14 13 13 12 12 11 11 11 10 10 9 10 11 10 8 9 10 11 12 13 13 12 12 13 12 13 13 14 15 15 14 14 14 14 14 14 13 14 14 14 13 13 13 12 13 14 15 17 16 16 17 15 13 16 16 15
3 4 3 1 4 4 3 4 2 4 7 9 10 9 9 10 6 6 5 6 9 9 7 6 5 2 5 12 21 27 27 26 23 21 20 19 18 17 16 15 15 14 13 13 12 12 11 11 12 11 10 9 10 11 11 9 9 10 11 13 14 13 12 12 12 12 12 12 13 13 13 13 13 13 13 13 13 13 14 14 15 14 13 13 12 13 14 15 16 16 16 17 14 12 14 15 14
3 3 2 1 5 5 4 5 4 3 7 10 10 9 8 10 8 7 8 8 9 9 7 8 8 8 12 20 26 28 26 26 24 22 20 18 17 16 15 15 15 14 14 13 12 11 11 11 12 11 11 10 10 10 11 10 10 10 10 12 13 12 13 12 11 10 10 11 11 11 11 11 11 12 12 13 13 13 14 14 14 14 14 14 13 13 13 14 15 17 17 17 15 12 12 13 12
4 3 0 3 5 6 6 5 4 2 6 9 10 8 7 10 10 9 9 10 10 10 9 9 11 13 16 22 27 27 26 25 24 23 21 19 17 17 16 15 15 14 13 13 12 11 11 11 11 11 11 10 10 10 10 10 10 11 10 11 11 11 11 10 10 9 10 10 10 10 10 10 11 12 12 12 13 13 14 14 14 14 15 15 15 15 13 14 15 16 17 15 13 12 11 11 9
3 3 1 5 5 7 8 6 3 2 6 9 10 8 6 9 10 8 10 12 11 10 10 10 12 15 17 21 25 26 24 24 23 22 20 19 18 17 16 15 15 14 13 12 12 11 10 11 11 11 11 10 9 9 10 10 11 12 10 10 10 10 10 9 9 9 10 10 9 9 10 10 11 12 12 12 12 12 13 13 13 14 14 14 14 14 14 13 12 14 16 14 12 10 10 9 7
1 2 2 6 4 5 8 6 3 3 5 8 9 9 8 9 8 7 10 11 9 8 10 11 13 17 19 21 23 24 23 23 22 21 20 19 17 16 15 15 15 14 13 12 11 11 11 11 11 11 11 10 9 9 9 9 11 11 9 9 9 9 9 9 8 8 9 9 8 9 9 10 10 11 10 10 10 10 11 10 10 10 11 12 11 10 11 11 11 12 11 10 10 9 8 7 7
2 2 2 4 3 4 7 5 3 2 5 8 9 9 8 9 7 8 10 7 5 7 9 11 14 17 20 22 23 23 22 22 21 21 20 19 18 16 15 15 14 13 12 11 12 12 12 11 11 11 11 10 9 8 8 8 9 9 10 9 8 8 8 8 8 8 8 8 8 8 9 10 10 10 9 9 9 9 9 8 8 8 9 10 9 8 8 9 11 9 5 7 9 9 8 7 7
3 3 2 2 3 4 4 4 3 3 5 8 9 8 7 9 8 8 9 3 5 7 9 11 14 18 20 22 22 21 20 20 20 20 20 20 18 17 16 15 14 13 12 12 12 12 12 12 11 11 11 10 9 9 9 8 8 8 10 9 8 8 8 8 8 8 8 7 7 8 8 9 9 9 9 8 8 7 8 7 8 8 7 8 8 8 8 8 9 7 5 6 8 9 8 7 7
4 1 2 2 3 3 3 3 2 4 5 7 7 7 8 9 7 8 7 4 6 8 9 11 15 19 20 19 19 19 19 19 19 19 19 19 18 17 16 15 14 13 12 12 12 12 12 12 12 11 11 11 10 9 9 8 8 8 9 9 8 7 7 7 8 8 8 7 7 7 7 7 8 8 8 7 7 7 7 7 7 7 7 7 7 8 8 8 7 6 5 6 6 7 8 7 7
6 4 2 3 4 4 4 2 2 4 5 6 8 8 9 7 5 8 8 6 8 9 11 13 15 18 18 17 18 18 18 19 19 19 18 17 17 17 15 14 14 13 13 13 12 12 12 12 12 11 11 11 10 9 8 8 8 8 8 8 8 7 7 7 8 8 7 7 6 6 6 6 6 7 7 6 6 6 6 6 6 6 6 7 7 7 7 6 5 5 5 5 6 6 7 7 7
4 4 4 5 5 5 5 2 3 5 5 6 9 8 8 7 5 8 8 7 10 11 12 14 15 17 16 16 17 17 16 18 19 19 18 17 17 17 16 14 14 13 13 13 12 12 12 12 12 12 11 11 10 9 8 8 8 8 8 8 8 7 7 8 8 7 7 6 6 5 5 5 6 6 6 6 5 6 5 5 6 6 6 6 6 6 5 4 4 4 4 5 5 6 6 6 6
1 4 6 6 4 5 5 1 6 7 6 8 9 8 8 8 6 6 9 9 11 13 13 14 14 15 15 15 15 15 16 17 18 18 17 17 17 17 16 15 14 13 14 13 12 12 12 12 12 12 11 10 10 9 9 9 9 8 8 8 8 7 7 7 6 7 7 6 5 5 5 5 5 5 5 5 4 5 5 5 5 5 6 5 5 4 4 3 3 4 4 5 5 5 6 6 6
1 5 5 3 1 4 5 2 8 6 6 8 8 7 8 8 6 5 10 11 12 14 15 15 14 14 14 15 14 13 14 17 18 17 18 17 17 17 17 15 15 14 14 13 12 12 13 13 12 12 11 11 10 9 9 9 9 8 8 8 8 7 7 6 6 7 6 6 5 5 4 4 4 4 4 4 4 4 4 4 4 4 5 4 4 4 3 3 3 4 4 4 4 5 5 5 5
4 5 3 3 4 3 4 4 7 5 6 7 7 6 7 9 7 8 12 12 13 14 14 15 14 13 13 14 13 12 14 17 17 16 17 17 16 16 17 16 15 15 14 13 12 12 13 13 12 12 12 11 10 10 10 9 9 9 8 8 8 8 7 6 6 6 6 6 5 4 4 4 4 3 3 3 3 4 4 3 4 4 4 4 4 4 3 3 3 4 4 4 4 4 5 5 5
5 5 4 3 6 3 2 4 6 4 6 7 6 3 5 9 9 12 13 13 14 13 13 14 13 12 12 13 12 12 14 16 16 16 16 16 15 16 16 16 16 14 13 14 14 13 13 12 12 12 12 11 10 9 9 9 9 8 8 8 8 7 6 6 6 6 6 6 5 4 4 3 3 3 2 2 2 3 3 3 3 4 5 4 4 3 3 3 3 3 3 3 4 4 5 5 5
5 5 4 5 5 6 4 5 7 6 5 7 5 2 3 8 10 13 13 13 14 13 13 13 12 12 12 12 12 12 14 16 16 16 16 16 15 15 16 16 16 15 14 14 15 14 13 13 12 12 12 11 10 10 9 9 9 9 8 8 7 7 6 6 6 6 7 6 5 5 4 3 3 3 3 2 2 2 3 3 4 5 5 5 4 3 3 3 3 3 3 3 4 5 5 4 5
6 4 6 7 3 7 6 4 7 5 5 8 6 2 4 9 11 13 13 13 14 12 13 13 12 13 12 12 12 12 13 15 17 17 16 16 15 15 16 16 16 15 14 15 15 15 14 13 12 12 13 12 11 10 9 9 9 9 8 7 7 7 6 6 6 6 6 6 6 5 4 4 3 3 4 3 2 2 3 3 4 5 5 4 3 3 3 4 4 4 3 3 4 4 5 5 5
7 6 6 7 5 7 7 5 6 3 5 9 8 3 4 9 10 12 12 13 13 11 12 13 12 13 12 11 11 11 13 14 16 17 17 17 16 15 16 16 16 15 15 15 15 16 15 14 13 12 13 13 12 11 10 9 9 9 8 7 7 7 6 6 6 5 5 5 5 5 4 4 4 4 4 4 2 2 3 4 4 5 5 4 3 3 3 4 4 4 3 3 3 3 4 5 5
7 7 4 5 4 5 7 7 7 5 5 8 9 5 4 9 9 11 12 13 12 11 11 12 11 12 11 11 11 12 12 13 14 16 18 18 16 16 16 15 16 15 15 15 16 16 15 14 13 12 13 13 12 11 10 9 9 9 8 7 7 7 6 5 6 5 5 5 5 5 4 3 4 4 5 4 3 3 4 4 5 5 4 3 3 3 3 4 4 4 4 3 3 3 3 4 4
10 9 5 5 4 2 5 6 7 8 7 6 7 6 3 8 9 10 11 12 12 11 10 11 11 11 11 11 11 12 13 13 14 17 19 19 17 17 16 15 16 15 14 15 15 15 15 14 13 12 13 13 13 12 11 10 9 9 8 8 7 7 6 5 5 5 5 5 5 5 3 4 4 5 5 5 4 3 4 5 5 4 4 3 3 3 4 4 5 4 4 4 3 2 2 3 3
9 9 6 6 6 4 6 7 7 8 7 6 6 5 4 7 8 9 11 11 11 10 10 10 10 11 11 11 11 12 13 13 15 18 19 19 18 17 17 16 16 15 15 15 16 15 15 14 14 13 13 13 13 13 12 11 10 9 9 9 8 7 7 6 6 5 5 5 5 4 4 4 5 5 5 5 4 4 4 5 5 4 4 4 3 3 4 4 5 4 5 5 3 3 3 2 2
4 7 6 4 5 5 7 8 8 6 5 5 6 5 4 5 7 9 10 11 11 11 11 10 10 10 10 11 12 12 13 12 15 18 18 19 18 18 17 16 16 16 15 16 17 16 16 16 15 14 13 14 14 13 13 12 11 10 10 10 9 9 8 7 6 6 5 5 5 4 4 4 5 5 6 6 5 5 5 5 5 5 4 4 3 3 4 3 4 4 5 4 3 3 3 3 3
4 6 6 6 5 6 7 6 8 7 4 3 5 6 5 5 7 9 10 12 12 12 13 12 12 12 11 12 12 12 11 11 14 16 18 19 18 18 17 16 17 17 16 17 17 17 17 17 16 15 14 14 14 14 13 12 11 10 10 10 9 9 9 8 7 6 5 5 4 3 4 4 5 5 6 6 6 5 5 5 5 5 4 4 4 4 4 3 3 5 4 4 3 3 3 3 2
5 6 6 6 5 7 7 6 7 7 5 2 3 6 5 6 6 9 11 11 11 12 14 13 14 14 12 12 12 12 12 12 14 15 18 20 19 19 18 16 17 17 17 18 17 17 17 17 17 16 15 15 14 14 13 13 11 10 9 9 8 8 8 8 6 6 5 4 4 4 4 5 5 5 6 6 6 6 6 6 5 5 4 4 4 4 4 3 3 4 4 3 3 3 3 3 2
6 5 7 7 7 5 5 7 8 5 3 2 2 6 4 6 5 8 11 11 9 11 13 13 13 14 13 13 12 12 13 13 14 15 17 19 20 20 18 17 17 17 17 17 17 17 17 17 17 17 16 16 15 14 14 12 12 11 9 8 7 6 7 7 6 5 5 4 4 4 4 5 5 5 6 6 5 5 6 5 5 5 5 4 4 4 4 3 4 4 3 3 2 3 3 4 3
7 6 7 5 6 4 2 6 6 5 4 5 5 7 4 6 6 7 9 10 9 9 10 11 11 11 11 12 13 13 14 14 14 15 16 18 20 20 19 18 18 18 18 18 18 18 17 18 18 18 17 16 15 15 15 13 12 12 10 9 8 6 6 7 8 7 7 6 5 5 6 6 6 6 6 6 5 5 5 5 5 5 5 4 4 4 4 4 4 4 4 3 2 2 3 3 3
8 9 8 3 3 4 3 4 4 5 6 7 6 7 5 6 3 2 4 6 7 5 6 8 8 9 10 11 12 13 13 14 14 15 15 18 20 20 20 19 19 19 18 18 19 19 18 18 19 19 17 17 16 16 16 15 14 13 13 11 10 10 9 9 9 9 8 7 6 6 6 7 7 6 6 6 5 5 5 5 5 5 5 4 4 3 3 4 4 4 3 3 2 2 3 3 3
7 8 8 5 3 5 4 4 5 5 3 5 4 6 4 7 5 6 3 3 4 4 3 5 6 8 9 10 10 12 13 13 14 15 16 17 20 21 21 21 20 20 19 19 18 19 19 18 19 19 18 17 17 17 18 17 15 14 14 13 12 11 10 10 9 8 8 8 7 7 7 7 7 7 6 6 6 5 5 4 4 4 4 4 4 3 3 4 4 4 4 3 2 2 2 1 2
4 6 6 8 8 8 7 6 6 3 1 3 5 5 4 5 6 5 3 5 6 4 2 3 5 8 9 10 11 12 12 12 12 14 16 17 19 21 22 22 22 21 20 20 19 19 19 19 19 19 18 17 17 18 20 19 17 16 15 14 12 12 11 10 10 9 8 8 7 7 7 7 7 7 6 6 6 6 5 4 4 4 3 3 3 3 3 3 3 4 4 3 2 1 1 0 0
1 5 4 6 7 9 8 7 6 2 2 5 7 5 5 4 7 5 5 6 6 5 3 1 2 6 9 11 12 13 13 12 12 13 15 18 20 22 22 22 23 23 21 21 20 20 20 20 20 20 19 18 18 19 21 21 19 16 16 15 13 12 11 9 10 10 9 8 8 8 7 7 7 8 7 7 7 6 6 5 5 5 4 3 3 3 2 3 3 4 4 4 3 3 2 1 1
2 4 4 4 5 7 7 7 6 3 5 8 7 8 7 3 6 4 5 5 6 6 5 5 5 4 6 10 11 12 12 13 13 13 15 18 21 22 23 23 23 23 22 21 21 20 21 21 21 21 20 19 19 20 21 21 20 17 16 16 15 13 11 10 9 10 9 9 9 8 8 8 7 8 8 7 7 7 7 6 6 5 5 4 3 2 2 3 3 3 4 4 4 4 3 3 2
3 5 6 5 5 5 5 5 4 4 7 9 8 8 8 3 4 4 5 6 7 6 6 7 7 6 4 6 10 12 12 12 14 14 16 20 21 21 22 22 23 23 22 22 22 21 21 21 21 22 22 20 19 20 21 21 20 19 18 18 17 15 13 12 11 10 10 9 10 9 9 9 8 8 8 8 8 8 8 7 7 6 6 5 4 3 3 3 3 4 4 4 4 4 4 4 3
5 7 7 7 6 5 5 5 4 6 7 9 9 7 7 5 4 6 6 6 7 7 7 9 9 8 7 5 6 9 11 12 13 13 14 16 18 20 22 22 22 22 22 22 22 22 21 21 22 22 22 21 20 20 21 20 20 20 20 19 18 17 15 13 12 11 11 11 11 10 9 9 9 8 8 8 8 9 8 8 8 7 6 6 6 5 4 4 3 3 3 4 4 5 5 5 4
8 8 8 7 7 6 7 7 7 8 6 5 8 8 5 2 5 6 8 8 7 8 8 9 10 9 7 6 5 6 9 11 11 11 12 13 15 18 21 22 22 22 23 23 22 22 21 21 22 22 22 22 21 21 21 21 20 20 20 20 19 18 16 15 14 12 11 11 11 11 11 10 10 10 9 9 9 9 9 9 8 8 7 7 7 6 5 4 4 4 4 4 4 5 5 6 6
9 8 8 7 7 8 9 8 7 9 6 4 5 7 6 6 5 3 7 8 8 8 9 9 9 9 8 6 5 4 7 10 11 11 12 13 14 18 21 22 22 23 23 24 23 22 21 21 22 23 23 23 22 21 21 21 21 20 20 20 20 19 18 17 15 14 13 12 12 12 12 12 11 11 11 10 9 9 9 9 9 9 8 8 8 8 7 6 6 5 5 5 5 4 5 6 6
11 8 8 8 6 6 8 8 9 9 8 7 7 6 5 7 4 2 7 8 8 9 9 10 10 9 9 8 7 7 4 5 9 12 13 13 16 19 21 22 23 24 24 25 24 23 22 22 23 23 23 23 23 22 22 22 22 21 20 20 20 19 19 18 17 15 14 13 13 13 12 12 12 11 11 10 9 10 9 9 9 9 9 9 9 8 8 7 7 7 6 6 5 5 5 6 6
8 6 7 6 4 4 4 4 7 9 8 7 7 3 3 7 7 5 6 6 8 9 10 12 12 12 10 9 9 9 8 5 4 7 11 14 17 19 20 22 23 24 25 25 24 24 23 22 23 25 24 24 24 23 23 23 22 21 21 21 21 20 19 18 17 17 16 15 13 13 13 13 12 11 11 11 10 10 10 10 9 10 10 10 9 9 9 8 8 8 7 7 7 6 6 6 5
5 7 7 2 3 3 3 1 4 7 8 7 7 6 7 7 7 6 5 5 7 10 11 13 13 13 12 11 11 10 10 9 8 6 6 9 15 20 21 22 23 24 25 25 25 25 25 24 23 25 25 24 24 25 24 24 23 22 22 22 22 21 21 20 19 18 18 16 15 14 14 13 14 13 12 11 11 10 10 10 10 10 10 10 10 10 10 10 9 9 8 8 8 7 6 6 6
3 5 5 4 2 4 4 3 5 7 7 6 8 10 9 7 5 5 4 4 7 10 12 13 14 14 14 13 12 12 12 10 10 9 8 7 10 18 21 21 22 24 25 26 27 26 25 25 25 25 26 25 25 25 24 23 23 23 22 23 23 22 22 22 21 19 18 17 17 16 15 14 14 14 13 12 11 11 11 11 11 10 10 10 10 10 11 11 10 10 9 9 9 8 7 7 6
3 1 1 2 4 6 5 5 6 9 8 6 9 10 7 3 3 6 4 4 6 8 11 12 14 15 14 13 14 14 12 11 9 8 8 7 9 13 18 21 22 23 24 25 26 27 26 25 25 25 26 26 26 25 25 24 24 23 22 23 24 24 23 22 21 19 18 18 19 18 17 16 15 15 14 13 13 12 11 12 12 11 11 11 10 10 11 11 11 11 10 10 10 10 9 9 8
1 2 2 3 4 3 5 6 5 7 9 7 8 9 5 2 4 7 6 6 6 7 9 11 13 15 14 14 14 13 12 11 9 8 7 6 10 13 15 18 20 20 22 23 24 25 26 25 24 24 24 25 25 25 25 25 25 24 23 23 24 24 24 22 21 20 19 20 20 19 18 17 16 15 15 15 15 14 13 12 13 12 12 12 11 11 11 11 12 12 11 10 10 10 11 10 10
2 5 5 5 4 2 3 5 4 5 6 7 9 8 5 4 4 6 6 6 7 7 8 9 11 13 14 15 13 12 12 12 11 9 8 8 5 9 13 15 17 18 19 20 22 24 24 24 24 24 24 24 25 25 24 24 24 24 23 24 24 24 24 23 22 22 21 21 20 20 19 18 17 17 16 16 16 16 15 14 13 13 13 12 12 12 12 11 12 12 12 11 10 10 11 11 11
3 2 1 1 4 4 5 7 5 4 5 3 6 7 7 4 3 5 5 6 7 8 8 8 10 12 13 14 14 13 12 12 13 11 9 12 13 8 2 4 9 15 18 19 20 21 22 23 23 23 24 25 25 25 24 23 22 23 24 24 24 24 24 24 23 23 22 22 21 21 20 19 18 18 18 17 17 17 17 16 15 14 14 13 13 13 12 12 12 12 12 12 11 11 12 12 11
Wind_Direction
142 151 155 161 166 176 189 211 239 195 237 77 92 118 106 85 121 125 126 137 125 122 111 119 124 116 112 90 98 80 41 38 40 67 98 125 138 138 141 140 137 129 123 126 130 132 133 132 129 130 130 126 125 124 123 123 121 120 120 122 121 117 112 109 109 108 107 108 113 116 121 125 124 121 113 108 103 100 96 94 98 106 114 110 105 104 102 102 100 101 106 110 110 109 109 108 111
155 158 160 165 172 208 204 205 249 191 203 122 96 100 122 138 146 130 128 137 121 132 139 127 118 101 92 87 106 104 58 41 67 87 102 127 130 135 143 139 137 130 125 128 131 131 131 131 129 131 131 127 127 125 125 124 122 122 122 124 120 114 110 110 110 107 105 107 109 109 115 122 125 122 113 106 98 93 92 96 100 104 108 106 104 100 96 95 93 97 103 108 107 105 108 112 114
162 156 163 172 178 225 269 233 249 277 228 107 93 98 128 138 125 124 122 120 120 138 136 124 112 98 122 108 92 88 79 66 95 106 115 132 131 139 143 137 135 123 115 128 133 131 131 132 130 132 131 129 129 127 126 125 123 122 123 124 119 117 116 114 111 106 104 107 108 105 108 117 120 114 109 105 100 98 100 107 107 101 94 92 91 89 88 87 86 88 91 95 97 98 106 110 110
161 161 173 192 199 204 235 246 261 281 274 79 92 104 117 124 124 121 114 121 131 139 131 125 110 53 59 96 85 78 92 91 105 117 126 136 136 140 141 137 134 121 118 130 133 131 131 133 131 132 133 131 129 128 127 126 123 120 121 121 120 122 119 114 111 106 105 109 108 105 106 114 115 109 106 105 106 107 112 113 107 99 90 88 92 97 100 102 104 101 95 89 86 88 96 103 107
160 171 192 226 245 206 254 262 269 274 353 50 94 105 109 121 127 123 121 133 139 138 132 132 116 91 68 67 64 90 100 106 113 123 126 130 134 139 139 136 135 131 131 132 136 134 132 134 132 134 134 131 129 129 128 126 124 121 121 121 126 128 120 115 112 111 113 112 109 109 110 112 111 108 106 105 108 116 123 119 109 102 97 101 104 103 104 104 104 104 103 100 96 88 89 97 102
166 183 203 240 283 306 274 258 253 313 28 34 106 110 118 128 125 126 128 134 136 135 134 132 129 128 95 62 57 69 91 118 122 125 123 129 137 139 138 138 136 134 133 133 140 140 137 136 134 134 130 128 128 128 127 126 125 123 123 128 132 126 120 117 115 115 115 112 111 114 114 111 107 105 105 107 110 115 114 107 104 105 105 105 101 95 94 96 94 92 97 103 107 102 95 91 97
181 193 198 227 250 245 260 257 259 77 49 34 94 117 127 131 127 131 132 134 135 138 141 130 132 124 101 97 80 61 79 116 122 123 125 132 137 139 139 139 135 133 132 134 139 138 137 136 134 131 126 126 126 126 128 128 126 126 130 135 133 125 123 120 117 116 112 109 108 111 114 114 110 106 106 107 106 102 96 97 105 108 104 99 94 89 87 88 90 91 93 97 103 108 106 98 97
194 216 216 231 226 200 238 240 83 58 67 56 77 115 129 132 135 139 139 141 144 149 149 137 137 117 97 113 87 75 101 114 117 120 127 133 137 140 140 137 134 133 131 133 136 136 135 133 131 129 127 127 125 126 127 129 128 131 133 133 131 126 124 119 118 116 113 111 107 110 115 117 115 113 111 108 105 104 105 109 110 103 97 94 91 88 84 84 86 89 92 95 97 102 105 103 102
207 226 241 250 240 206 211 144 92 66 81 101 94 117 131 138 141 143 144 141 147 154 147 137 139 119 106 98 90 100 111 114 119 123 130 134 138 140 138 137 135 134 130 129 132 133 131 130 130 129 129 126 127 127 127 131 131 132 131 130 127 122 119 117 117 114 113 114 113 114 115 115 114 113 112 109 108 112 114 107 102 96 91 90 89 86 83 83 84 86 89 93 95 93 98 104 108
213 214 244 263 245 218 176 106 92 85 91 106 115 136 137 142 146 145 146 140 150 153 138 130 117 119 116 102 97 113 120 125 128 129 134 136 139 140 138 138 134 134 130 125 126 128 128 129 130 129 128 127 130 131 133 134 131 131 129 126 122 120 120 117 116 113 115 116 116 113 107 106 106 108 109 109 110 110 103 95 92 91 87 86 87 88 85 83 84 86 87 89 93 97 100 106 111
233 209 242 268 221 196 134 98 94 106 109 107 121 139 137 144 148 146 146 147 155 146 136 139 121 120 117 104 94 112 128 136 136 134 137 138 140 139 137 135 134 134 129 126 124 125 127 130 131 130 128 130 133 135 137 130 126 128 125 122 121 124 123 120 119 116 119 117 114 111 104 101 101 104 104 106 108 102 95 92 91 91 88 86 86 87 85 83 85 87 87 87 90 96 101 106 109
256 219 221 261 251 75 78 93 103 115 119 120 129 136 140 151 149 150 153 152 154 146 146 146 126 130 123 110 103 127 138 141 138 138 138 140 139 137 136 134 135 133 130 127 126 128 131 133 133 133 132 132 135 135 129 122 124 126 123 123 122 123 122 124 125 121 122 117 112 108 104 102 100 102 101 101 102 99 96 94 93 93 92 90 88 85 85 85 86 87 85 85 87 91 97 103 105
250 281 262 269 15 43 77 94 115 123 122 126 134 136 149 155 150 154 155 150 154 152 146 138 134 137 119 110 120 139 145 142 140 140 141 142 140 138 137 135 135 134 133 129 128 131 133 135 135 138 136 133 134 128 118 119 126 124 121 121 122 126 128 131 131 125 121 110 103 100 100 100 98 97 95 93 95 98 98 98 97 97 96 93 91 87 87 88 85 86 85 85 87 89 94 99 101
273 312 298 303 72 62 86 110 134 124 119 126 130 139 152 149 145 153 157 151 151 147 134 135 142 128 117 122 137 149 148 143 142 142 143 143 141 141 139 138 137 137 136 132 131 133 134 136 136 138 134 132 128 115 111 121 124 120 121 122 121 126 128 130 129 124 118 111 106 103 101 98 97 96 94 92 92 94 96 100 102 100 98 95 94 90 89 90 88 87 86 85 88 90 90 94 97
292 302 294 290 107 119 119 144 141 119 124 136 135 141 139 127 146 153 156 149 134 127 129 137 142 124 142 150 151 153 149 145 144 145 144 142 141 141 140 140 140 141 139 135 134 135 137 134 134 134 130 132 123 109 109 118 118 116 119 118 115 116 116 118 120 118 115 115 114 112 108 103 102 100 97 97 94 93 95 100 103 102 102 101 98 93 90 92 91 89 89 88 91 96 94 90 91
273 290 281 251 119 133 152 160 156 126 130 136 137 146 133 126 155 142 132 138 126 137 145 146 139 106 160 155 145 146 149 148 146 146 144 141 141 140 141 143 142 142 141 138 137 137 138 135 134 132 133 133 121 116 117 116 116 115 114 112 111 110 109 110 112 111 111 113 112 111 109 105 103 99 96 96 96 96 98 102 104 102 104 105 99 94 93 93 93 92 91 91 92 99 99 92 88
267 272 257 202 102 111 126 129 125 105 122 135 144 158 140 132 149 124 122 142 136 146 149 132 121 94 125 131 136 142 147 148 148 147 145 144 144 144 146 147 146 147 146 143 140 139 140 138 134 132 135 131 124 123 121 123 121 114 112 110 108 108 108 106 105 107 108 110 110 108 106 105 103 101 100 99 97 96 97 100 103 103 103 104 100 97 96 94 95 95 92 90 91 95 100 99 94
256 253 238 88 70 80 64 73 84 103 134 144 154 166 148 138 145 144 149 144 135 139 133 118 109 95 104 121 133 140 146 149 152 152 150 150 150 150 150 152 153 151 151 147 144 144 143 141 135 132 135 132 129 126 123 129 126 118 114 109 108 110 108 106 106 107 107 107 107 106 103 105 105 105 106 104 103 101 98 98 100 101 99 98 95 93 95 96 95 92 88 87 89 92 97 102 101
250 275 181 70 54 72 56 58 95 128 143 146 158 169 160 146 147 162 159 143 146 145 137 132 121 112 116 129 137 141 147 151 156 157 155 155 155 154 153 155 155 153 154 151 148 148 146 144 137 133 136 133 131 127 126 136 132 125 119 113 114 112 109 107 108 110 110 107 106 104 101 103 104 106 108 107 107 105 101 100 99 98 94 89 86 84 84 89 92 90 89 88 91 93 92 97 104
244 275 88 77 53 74 64 50 73 84 137 153 161 164 166 152 151 172 163 150 161 158 148 149 137 134 137 139 141 145 151 155 160 161 158 158 158 157 154 155 155 155 155 151 150 150 149 146 139 135 136 134 133 130 132 140 133 125 124 122 121 117 115 112 109 108 109 109 107 105 103 103 102 103 103 101 102 104 104 102 99 97 92 85 82 80 77 84 93 90 89 91 90 88 87 93 100
239 264 65 70 41 61 61 52 65 82 143 158 158 161 168 157 156 173 165 157 167 164 154 153 145 145 147 146 146 150 154 158 162 163 161 161 160 159 156 155 154 153 153 151 151 151 151 150 144 140 139 138 138 135 134 137 129 125 130 128 125 125 122 117 114 110 108 109 109 109 108 107 105 104 103 101 104 108 109 107 105 102 97 91 84 78 76 78 78 73 82 100 98 89 89 98 101
239 218 47 46 14 38 47 54 80 89 140 154 160 166 162 157 163 175 175 164 159 159 152 148 146 148 152 150 150 153 158 161 164 164 164 163 161 159 157 155 152 151 153 156 155 154 154 153 149 144 143 142 140 138 134 133 130 129 131 128 128 127 123 122 119 113 110 110 110 110 111 110 110 109 108 108 109 111 112 112 114 114 108 105 101 94 91 81 75 74 100 129 113 103 102 105 107
236 174 84 8 11 22 19 51 96 116 148 162 165 159 154 165 166 174 183 140 100 137 142 143 144 149 153 152 152 157 161 164 166 167 167 164 162 161 159 156 153 153 157 159 157 155 157 156 153 148 146 146 143 139 135 137 134 129 129 128 128 125 124 121 115 114 112 110 108 108 109 108 109 109 110 112 113 113 113 113 114 115 111 108 108 106 104 97 96 105 120 117 106 105 107 111 113
250 215 69 2 3 357 356 46 117 145 154 164 153 149 169 177 158 163 178 111 102 127 135 140 141 148 154 154 157 159 161 166 167 168 168 165 164 162 161 158 154 155 158 159 158 158 160 159 156 152 149 148 146 141 139 142 136 130 130 128 125 124 122 115 111 113 109 106 102 101 101 104 107 108 110 111 110 109 105 107 106 105 103 99 97 95 96 100 110 120 117 110 106 106 108 110 114
229 256 355 330 328 347 356 16 163 149 148 157 151 163 177 167 138 159 165 130 131 135 134 138 141 149 155 157 159 159 162 167 167 167 168 166 165 163 162 160 156 157 160 159 160 162 163 162 160 156 153 151 148 146 144 144 139 135 132 127 125 123 117 112 112 111 108 105 99 94 92 97 105 106 106 104 100 99 96 97 97 96 95 89 86 87 92 101 112 119 122 119 113 108 105 104 109
202 270 320 309 324 1 352 348 159 150 146 160 162 167 163 147 147 161 154 139 141 138 137 141 146 153 158 160 161 161 163 167 168 167 167 166 166 166 166 165 162 162 162 161 163 164 164 165 164 161 157 155 153 151 148 146 144 140 134 129 128 123 117 117 116 113 111 107 102 96 88 88 96 99 100 99 94 92 91 89 90 90 87 83 84 88 95 105 111 115 118 116 112 107 100 97 100
114 286 290 293 338 24 349 12 146 147 144 170 173 159 152 161 188 170 146 148 145 141 143 146 152 158 160 162 162 163 166 169 169 167 167 167 168 170 169 169 168 165 163 163 164 164 167 168 166 164 160 159 158 156 152 149 148 143 137 134 131 126 124 123 119 116 111 106 107 101 90 84 87 93 99 99 96 92 89 85 84 84 84 85 91 97 104 105 104 106 109 108 105 103 97 94 96
236 274 272 262 37 41 2 99 143 146 148 177 174 146 152 172 195 164 146 153 151 148 150 153 158 159 162 163 162 165 169 170 170 171 171 170 172 173 173 172 170 166 166 167 164 163 169 170 168 166 164 162 163 161 156 153 152 148 143 140 136 133 133 130 123 118 114 111 110 103 97 94 89 92 96 96 94 89 86 88 89 89 93 98 103 111 113 108 104 101 103 102 100 100 99 95 94
253 261 260 171 142 54 29 116 147 155 151 173 173 152 170 185 180 152 152 158 156 156 154 157 163 160 164 164 162 168 170 171 174 177 176 173 175 176 175 173 171 169 168 168 165 167 169 170 168 168 167 165 167 164 159 158 155 153 150 146 141 138 141 137 130 126 123 121 121 115 114 113 102 95 96 96 92 92 94 100 105 107 111 117 122 121 114 108 105 101 104 104 101 103 103 101 98
244 221 244 190 162 115 65 140 159 159 143 169 186 165 166 179 171 149 155 163 159 162 159 162 165 162 167 165 167 171 171 174 177 178 177 176 177 178 177 173 173 170 167 169 169 170 169 169 170 169 170 168 168 167 162 161 159 157 154 150 147 145 147 142 137 137 134 133 136 134 131 130 127 123 122 111 103 112 118 123 123 123 128 131 130 125 117 113 106 101 107 105 106 108 105 105 102
221 180 209 232 184 140 147 167 173 162 138 167 168 85 138 165 166 150 157 168 165 167 164 166 166 164 169 168 172 174 173 179 180 178 177 177 178 179 178 174 175 171 168 171 170 171 169 169 171 169 172 171 170 170 165 164 161 161 159 155 155 152 152 149 145 145 143 144 145 146 149 152 159 157 153 148 139 137 135 139 134 127 129 130 129 130 128 120 111 105 106 107 112 113 108 108 104
205 184 186 222 198 126 141 170 190 169 142 177 168 120 144 152 159 153 161 173 171 172 167 169 170 168 171 171 177 176 175 181 181 181 178 178 179 178 179 176 176 174 171 172 170 171 171 169 172 171 172 172 172 173 169 167 164 164 163 160 161 160 159 154 151 149 146 149 148 153 161 165 183 181 167 163 160 154 145 141 133 126 124 123 124 129 128 119 114 112 112 110 110 113 115 114 109
199 219 195 194 180 142 146 158 194 179 147 183 193 197 113 124 148 151 162 175 174 176 170 174 173 170 173 172 178 178 175 179 183 185 180 180 181 178 180 178 178 177 174 173 170 173 173 171 175 176 173 173 173 174 173 171 169 169 167 165 166 167 168 159 157 154 148 151 149 152 163 172 197 194 170 162 167 161 142 131 125 119 114 116 117 116 119 115 112 115 117 120 116 120 122 115 112
187 216 199 169 181 159 150 153 174 183 185 193 200 215 79 102 141 149 163 174 175 179 174 177 176 172 176 175 178 178 178 180 183 185 182 182 182 179 180 178 180 180 177 177 174 175 175 173 176 178 175 174 173 174 176 176 173 174 172 172 172 174 177 167 161 156 152 153 147 149 159 167 183 184 167 159 167 160 133 124 119 114 108 105 102 103 108 111 116 120 122 135 135 129 118 111 111
192 203 195 166 183 164 134 139 160 179 205 210 202 214 116 113 137 148 164 174 177 181 177 181 181 175 177 179 180 179 180 183 184 185 184 183 182 180 180 179 181 183 182 180 176 176 176 175 176 177 178 176 175 174 175 176 177 178 177 176 177 182 184 175 167 161 155 152 143 143 147 156 169 171 166 160 161 154 134 125 119 116 110 99 97 102 106 111 118 122 126 137 145 138 109 103 107
199 198 204 179 170 141 105 109 146 179 208 210 200 213 175 141 146 155 165 173 182 182 179 185 185 181 181 184 184 179 182 185 183 185 184 183 182 180 180 179 182 184 184 181 178 177 176 175 174 176 181 179 176 176 176 178 179 180 180 179 180 184 185 180 176 169 161 152 140 139 141 154 167 165 163 159 158 151 135 127 123 119 112 105 104 102 104 112 118 123 127 133 144 145 125 118 109
191 183 186 183 161 123 105 111 136 172 216 210 200 213 197 162 158 164 165 172 185 184 182 187 190 190 187 189 188 181 183 183 179 182 184 184 183 181 179 179 182 183 183 182 181 181 179 178 175 175 181 182 180 180 180 182 181 181 182 183 182 182 183 182 181 177 167 155 146 145 143 154 164 162 162 161 161 155 138 130 126 123 117 112 106 103 108 112 119 124 127 135 148 143 128 119 102
200 194 179 195 187 118 106 121 135 159 191 183 197 215 199 182 171 168 175 182 189 188 186 188 193 196 192 193 192 183 183 179 174 177 182 185 184 182 181 180 183 184 184 184 185 185 183 182 179 176 180 184 186 185 184 185 183 183 182 184 184 178 180 184 182 180 171 158 158 157 148 160 165 160 165 165 161 157 146 138 131 128 124 118 112 113 117 115 126 133 135 141 145 132 117 104 92
202 205 194 197 170 122 117 126 135 165 192 138 210 230 177 171 176 171 187 196 195 193 189 190 193 194 191 191 192 186 183 180 176 176 181 185 185 184 182 181 184 186 185 186 188 187 185 184 182 179 180 183 187 188 187 186 184 184 182 184 185 177 179 185 178 173 172 161 163 167 164 171 165 161 170 167 161 160 153 143 138 135 132 129 123 123 127 126 134 142 143 145 146 137 122 106 93
210 205 207 194 164 164 142 131 136 169 220 107 229 251 166 154 177 179 194 202 201 196 193 193 192 192 189 187 191 189 185 183 179 180 182 184 184 185 185 183 184 185 186 187 189 189 187 186 184 182 181 182 186 187 186 186 182 182 182 181 185 180 178 185 183 179 183 179 174 175 180 181 166 162 171 167 164 164 156 147 141 140 141 139 133 133 142 145 145 149 141 134 141 136 126 114 100
211 214 223 195 170 198 87 113 149 182 198 149 203 240 173 156 182 182 191 199 204 199 196 198 190 188 189 188 193 192 189 186 184 184 183 184 185 185 186 184 184 185 187 188 189 191 190 189 186 184 183 182 185 186 183 182 180 181 183 184 189 190 186 189 194 193 188 190 189 180 180 181 170 166 171 169 167 166 158 150 143 141 142 144 144 144 147 151 153 153 145 132 104 91 110 116 108
208 211 226 219 172 192 122 125 187 204 185 163 210 232 166 152 159 132 157 181 199 195 197 205 188 186 195 196 195 194 194 190 187 188 185 185 186 186 186 186 187 188 189 190 190 192 191 189 187 185 184 183 184 185 183 181 182 186 189 190 192 193 194 196 199 197 188 188 187 173 172 177 174 171 173 174 170 167 164 154 147 143 142 148 154 152 152 162 164 161 157 145 114 78 85 111 121
212 190 202 215 220 217 200 190 214 231 171 137 224 248 174 139 79 24 27 120 148 162 190 213 193 188 199 205 199 196 198 194 191 192 189 188 187 187 188 188 191 192 191 191 191 192 190 188 187 186 186 185 184 184 184 185 188 192 194 196 196 196 196 197 200 200 189 185 179 167 169 175 178 177 176 180 177 172 170 163 155 147 146 153 158 162 168 171 166 164 168 157 138 106 79 108 137
204 130 175 206 216 222 218 218 225 253 24 143 207 248 222 145 85 27 24 87 95 108 157 218 208 202 202 207 206 201 201 197 196 195 192 192 189 189 190 190 193 194 192 192 191 191 189 187 187 187 188 186 185 184 187 192 193 194 196 199 201 202 202 197 196 199 192 186 180 172 174 175 180 183 180 184 186 183 179 174 170 162 158 162 164 175 176 165 161 167 176 170 167 175 133 125 101
177 98 179 201 212 223 218 225 228 222 253 218 191 206 230 155 105 76 74 76 66 58 32 331 240 221 210 209 208 205 200 196 202 204 198 194 192 192 192 191 194 195 193 192 192 191 187 186 186 187 188 188 187 186 190 197 197 195 196 198 203 205 206 200 195 197 195 191 189 183 181 179 180 184 186 189 191 192 190 185 185 180 176 177 179 186 173 166 170 173 186 189 195 211 220 242 268
111 111 188 171 188 216 213 224 222 187 232 232 187 190 219 145 103 95 74 51 29 25 11 2 348 297 231 215 211 209 202 193 198 206 206 200 195 194 194 194 195 196 194 192 192 191 187 185 185 186 188 188 189 189 192 197 197 196 197 198 201 203 203 202 195 194 194 196 198 193 190 188 185 186 188 192 194 198 198 195 194 189 186 185 186 191 180 180 185 183 195 201 206 218 223 237 244
141 160 183 166 169 190 203 220 222 204 223 228 202 197 221 200 95 78 62 34 13 6 3 1 350 339 308 236 217 212 208 199 197 201 204 201 198 197 197 197 197 196 195 192 191 192 188 186 184 186 188 188 190 191 193 196 196 198 200 199 200 201 202 201 198 195 195 199 203 201 198 195 192 190 188 191 195 199 202 203 202 196 193 190 191 196 194 193 191 190 196 201 209 217 218 226 238
195 193 185 173 167 171 194 196 209 222 222 217 200 192 222 220 106 80 66 40 19 10 5 3 354 347 342 307 246 218 211 207 203 202 203 198 196 199 199 199 199 197 196 194 193 192 189 187 185 185 187 187 189 192 194 196 197 200 202 201 202 202 203 204 204 203 199 202 205 204 202 197 194 194 191 190 193 196 200 203 206 202 198 197 196 197 198 199 196 190 193 202 207 209 216 222 227
205 199 185 182 174 174 197 190 198 221 220 200 190 192 211 136 90 80 67 46 27 23 14 7 3 357 350 334 303 243 217 211 207 203 205 201 196 198 199 200 199 197 197 196 195 194 191 188 185 185 187 188 189 192 194 196 199 202 203 203 203 204 205 207 208 208 205 204 205 206 204 200 196 195 194 194 192 193 198 203 206 206 204 201 201 198 196 199 200 200 201 207 210 206 214 221 224
201 199 189 193 185 181 196 192 197 213 206 172 171 197 194 126 96 80 76 53 28 31 25 17 13 9 6 358 341 295 230 214 209 204 204 205 199 197 199 200 199 197 197 197 197 196 192 189 187 186 187 188 188 190 193 196 200 203 204 204 204 204 206 208 209 211 210 207 207 208 208 205 202 201 200 198 194 193 198 204 207 210 209 205 204 202 198 199 201 204 208 209 213 210 216 225 226
193 202 202 210 208 199 200 196 199 201 189 167 163 197 195 146 137 97 86 67 40 39 36 32 29 24 21 16 10 357 315 231 216 211 208 209 205 200 198 199 199 199 198 198 198 196 193 190 188 188 188 188 189 190 192 195 199 202 204 204 205 205 206 209 211 212 211 210 210 210 210 209 208 206 203 200 198 197 199 205 208 212 214 212 210 208 202 204 205 206 210 211 212 212 219 232 232
182 199 215 222 232 230 220 205 203 198 186 175 170 159 88 123 136 113 90 76 53 42 40 42 36 31 30 26 21 11 356 342 282 230 216 212 208 203 201 200 200 199 199 200 199 196 195 192 189 189 190 188 189 191 192 195 199 201 202 204 205 206 207 208 210 210 211 211 211 211 212 212 211 210 206 203 204 204 204 207 209 212 215 215 216 214 209 208 208 207 210 212 214 215 220 232 236
175 191 206 178 18 293 254 192 196 207 200 180 161 124 104 127 132 104 88 73 56 39 36 42 38 33 33 28 22 12 2 353 340 315 270 231 211 205 204 203 201 200 200 199 199 197 196 193 191 190 190 190 191 192 194 196 197 199 201 204 205 207 208 210 211 211 211 212 213 215 215 214 215 213 211 209 209 209 209 209 209 210 212 214 216 216 215 214 212 213 213 213 217 219 220 228 233
221 192 179 111 48 282 262 220 186 200 202 177 164 149 144 169 158 109 91 60 50 39 35 38 38 35 33 30 23 13 5 355 345 333 317 284 229 211 206 206 205 204 202 200 198 197 196 195 194 192 191 191 193 194 196 196 196 198 200 203 205 208 211 214 215 214 213 213 214 217 217 216 216 216 215 213 208 207 210 211 210 209 209 212 214 214 217 218 217 220 220 219 222 221 221 226 227
312 306 152 176 215 209 216 228 199 197 203 175 158 149 137 172 139 97 67 40 41 38 36 34 35 35 31 28 23 16 9 2 356 345 324 295 252 225 211 209 210 208 205 203 199 197 198 198 198 197 195 194 195 196 196 196 196 198 201 203 205 207 211 214 215 215 213 214 214 215 217 217 216 215 214 212 207 206 209 212 212 211 211 212 214 215 217 218 219 223 224 224 224 221 224 230 229
221 243 213 227 249 215 206 224 212 208 205 167 156 154 123 81 90 78 57 46 39 34 37 35 35 36 32 28 24 19 14 8 4 359 345 306 256 236 221 213 215 213 209 207 204 201 200 201 201 201 200 198 199 198 196 195 197 199 200 201 203 206 209 211 213 213 212 214 215 215 217 217 216 216 214 213 214 212 210 211 212 212 212 213 214 216 217 218 220 223 226 229 225 222 225 230 231
206 215 202 193 227 262 243 228 232 248 225 182 180 172 119 89 89 76 66 60 48 40 42 40 38 36 34 32 28 24 19 12 9 9 8 359 307 243 225 216 214 215 211 208 208 206 205 205 204 203 201 200 202 201 199 197 198 199 198 199 201 203 206 207 209 211 212 214 215 216 217 216 216 216 215 215 216 216 213 212 213 213 212 213 212 214 216 217 221 223 226 231 229 227 228 230 232
344 285 251 219 231 230 219 215 212 251 271 240 193 160 106 94 106 82 72 65 58 51 46 46 45 38 36 34 29 28 25 19 16 17 21 23 21 18 338 251 228 219 212 208 210 210 208 209 208 206 204 203 204 203 201 199 199 200 199 200 201 202 203 204 205 208 211 214 216 217 216 215 215 216 216 217 217 217 217 215 216 216 214 213 212 214 217 217 220 222 224 229 230 228 231 232 232